sat.trackr.live / text

‹ back to catalog

STARLINK-32900

NORAD 63093 · 2025-037S

PAYLOAD ACTIVE UNKNOWN

§ Identity

Operator
Country
US
Launch date
2025-02-23
Launch site
AFWTR
Launch vehicle
Mass (kg)
RCS (m²)

Purposes: comms

External: N2YO · Heavens-Above · Gunter

§ Orbital elements

Epoch: 2026-09-20T14:29:22.961472Z

Period
94.14 min
Inclination
70.0030°
Eccentricity
0.0003305
Mean motion
15.29590293 rev/d
Perigee alt
474.8 km
Apogee alt
479.3 km
Semi-major
6,855.2 km
B*
3.6485e-4
RAAN
220.8018°
Arg perigee
268.0895°
Mean anomaly
91.9902°
Rev number
8,771

§ Raw data

STARLINK-329001 63093U 25037S   26263.60373798  .00010378  00000+0  36485-3 0  99972 63093  70.0030 220.8018 0003305 268.0895  91.9902 15.29590293 87711

JSON: /api/v1/satellites/63093 · /tle

For live sub-satellite position, see the globe view (requires WebGL).

§ Visibility from observer

Set your observer location to see the next 7 days of passes ≥ 10°. The values pass through the URL so the page stays shareable.

No JS? Fill the form by hand. The geolocation button needs JavaScript.